Change the Weather History Date:

Sunday, March 17, 2013

  Actual Average Record
Temperature  
Mean Temperature 35 °F -  
Max Temperature 46 °F 47 °F 83 °F (2012)
Min Temperature 24 °F 27 °F 21 °F (2014)
Degree Days  
Heating Degree Days 30    
Moisture  
Dew Point 28 °F    
Average Humidity 80    
Maximum Humidity 100    
Minimum Humidity 50    
Precipitation  
Precipitation 0.00 in - - ()
Sea Level Pressure  
Sea Level Pressure 29.95 in    
Wind  
Wind Speed 11 mph (East)    
Max Wind Speed 17 mph    
Max Gust Speed 28 mph    
Visibility 9 miles    
Events      
Averages and records for this station are not official NWS values.
T = Trace of Precipitation, MM = Missing Value Source: NWS Daily Summary

Daily Weather History Graph

Daily Weather History Graph

Search for Another Location

Airport or City:

Trip Planner

Search our weather history database for the weather conditions in past years. The results will help you decide how hot, cold, wet, or windy it might be!

Date:

Astronomy

Mar. 17, 2013 Rise Set
Actual Time 7:31 AM CDT 7:32 PM CDT
Civil Twilight 7:04 AM CDT 8:00 PM CDT
Nautical Twilight 6:32 AM CDT 8:32 PM CDT
Astronomical Twilight 5:59 AM CDT 9:05 PM CDT
Moon 10:42 AM CDT (3/17) 12:44 AM CDT (3/17)
Length of Visible Light 12h 56m
Length of Day
12h 01m
Waxing Crescent, 31% of the Moon is Illuminated
Mar 17
Waxing Crescent
Mar 19
First Quarter
Mar 27
Full
Apr 2
Last Quarter
Apr 10
New

Hourly Weather History & Observations

Time (CDT) Temp. Windchill Dew Point Humidity Pressure Visibility Wind Dir Wind Speed Gust Speed Precip Events Conditions
12:55 AM 29.5 °F 19.9 °F 23.9 °F 80% 30.17 in 10.0 mi NE 11.5 mph - N/A   Clear
1:55 AM 28.4 °F 20.4 °F 23.9 °F 83% 30.15 in 10.0 mi NE 8.1 mph - N/A   Scattered Clouds
2:55 AM 28.0 °F 18.1 °F 23.5 °F 83% 30.14 in 10.0 mi NE 11.5 mph - N/A   Partly Cloudy
3:13 AM 28.4 °F 19.7 °F 23.0 °F 80% 30.14 in 10.0 mi NE 9.2 mph - N/A   Mostly Cloudy
3:33 AM 28.4 °F 17.5 °F 23.0 °F 80% 30.13 in 10.0 mi NE 13.8 mph - N/A   Scattered Clouds
3:55 AM 27.3 °F 18.4 °F 22.8 °F 83% 30.12 in 10.0 mi ENE 9.2 mph - N/A   Scattered Clouds
4:55 AM 25.9 °F 16.6 °F 21.2 °F 82% 30.09 in 10.0 mi ENE 9.2 mph - N/A   Clear
5:55 AM 24.6 °F 17.7 °F 20.8 °F 86% 30.12 in 10.0 mi ENE 5.8 mph - N/A   Clear
6:55 AM 24.1 °F 15.2 °F 20.3 °F 85% 30.12 in 10.0 mi ENE 8.1 mph - N/A   Clear
7:55 AM 24.3 °F 13.9 °F 20.8 °F 87% 30.12 in 10.0 mi ENE 10.4 mph - N/A   Clear
8:55 AM 26.6 °F 16.8 °F 21.2 °F 80% 30.12 in 10.0 mi East 10.4 mph - N/A   Scattered Clouds
9:55 AM 28.6 °F 18.7 °F 21.0 °F 73% 30.11 in 10.0 mi East 11.5 mph - N/A   Partly Cloudy
10:55 AM 31.8 °F 22.8 °F 21.4 °F 65% 30.09 in 10.0 mi East 11.5 mph - N/A   Clear
11:55 AM 35.2 °F 26.6 °F 21.6 °F 58% 30.04 in 10.0 mi East 12.7 mph - N/A   Clear
12:55 PM 38.1 °F 29.5 °F 22.3 °F 53% 29.99 in 10.0 mi ESE 15.0 mph 19.6 mph N/A   Clear
1:55 PM 41.5 °F 34.2 °F 24.6 °F 51% 29.94 in 10.0 mi ESE 13.8 mph - N/A   Clear
2:55 PM 43.2 °F 37.4 °F 25.7 °F 50% 29.91 in 10.0 mi ESE 10.4 mph 18.4 mph N/A   Clear
3:55 PM 44.8 °F 38.3 °F 27.9 °F 52% 29.86 in 10.0 mi East 13.8 mph 27.6 mph N/A   Mostly Cloudy
4:55 PM 45.3 °F 38.7 °F 29.5 °F 54% 29.83 in 10.0 mi ESE 15.0 mph 21.9 mph N/A   Partly Cloudy
5:55 PM 46.2 °F 39.5 °F 31.3 °F 56% 29.79 in 10.0 mi ESE 16.1 mph - N/A   Clear
6:55 PM 43.9 °F 36.5 °F 31.8 °F 63% 29.78 in 10.0 mi ESE 16.1 mph - N/A   Overcast
7:55 PM 41.9 °F 33.7 °F 31.3 °F 66% 29.80 in 10.0 mi ESE 17.3 mph 21.9 mph N/A   Overcast
8:02 PM 41.0 °F 33.5 °F 32.0 °F 70% 29.80 in 10.0 mi SE 13.8 mph - N/A   Overcast
8:55 PM 38.8 °F 30.8 °F 33.6 °F 82% 29.83 in 10.0 mi SE 13.8 mph - N/A   Overcast
9:22 PM 37.4 °F 29.8 °F 35.6 °F 93% 29.83 in 10.0 mi ESE 11.5 mph - N/A   Overcast
9:39 PM 37.4 °F 29.3 °F 35.6 °F 93% 29.83 in 7.0 mi SE 12.7 mph - N/A   Overcast
9:49 PM 35.6 °F 28.0 °F 35.6 °F 100% 29.83 in 7.0 mi SE 10.4 mph - N/A   Light Drizzle
9:55 PM 36.3 °F 28.4 °F 36.1 °F 99% 29.84 in 9.0 mi SE 11.5 mph - 0.00 in   Light Drizzle
10:05 PM 35.6 °F 29.9 °F 35.6 °F 100% 29.84 in 8.0 mi SE 6.9 mph - N/A   Overcast
10:52 PM 35.6 °F 29.9 °F 35.6 °F 100% 29.84 in 10.0 mi ESE 6.9 mph - N/A   Overcast
10:55 PM 35.6 °F 29.9 °F 35.4 °F 99% 29.84 in 9.0 mi ESE 6.9 mph - 0.00 in   Overcast
10:56 PM 35.6 °F 29.9 °F 35.6 °F 100% 29.84 in 8.0 mi ESE 6.9 mph - N/A   Overcast
11:30 PM 35.6 °F 32.8 °F 35.6 °F 100% 29.84 in 5.0 mi SE 3.5 mph - N/A   Overcast
11:32 PM 35.6 °F 32.8 °F 35.6 °F 100% 29.84 in 5.0 mi SE 3.5 mph - N/A   Overcast
11:44 PM 35.6 °F 29.2 °F 35.6 °F 100% 29.83 in 6.0 mi ESE 8.1 mph - N/A   Overcast
11:55 PM 35.2 °F 27.6 °F 35.1 °F 99% 29.81 in 8.0 mi East 10.4 mph - 0.00 in   Overcast